User: anonymous   Login
Location: Muenchen
(48.1800°N, 11.5800°E)
Time: 09:00:14
(UTC+01:00)
Language:

Sich 1 Rocket - Orbit

View from above orbital plane
View from above orbital plane
View from above satellite
View from above satellite

Ground track
Ground track

The orbit data is extracted from the following two-line orbital elements,

1 23659U 95046C   17019.78545153  .00000059  00000-0  49129-5 0  9999
2 23659  82.5299  83.1559 0025680   3.0435 129.1228 14.78224334152628
Epoch (UTC): 19 January 2017 18:51:03
Eccentricity: 0.0025680
inclination: 82.5299°
perigee height: 617 km
apogee height: 653 km
right ascension of ascending node: 83.1559°
argument of perigee: 3.0435°
revolutions per day: 14.78224334
mean anomaly at epoch: 129.1228°
orbit number at epoch: 15262

The dashed part of the orbit path shows where the satellite is in the earth's shadow,  

DLR